GFSMW_500_rhum_024.txt.gz
RH
33 35 40 40 40 38 38 37 42 47 54 55 52 50 54 60 56 57 54 46 39 37 31 28 26 26 23 29 37 38 34 38 46 41 46 41 38 44 43 44 41 42 44
35 36 38 41 41 42 44 46 50 52 57 59 58 62 66 63 62 50 41 34 32 32 34 34 33 33 32 38 55 60 52 46 53 40 44 32 35 34 44 40 39 39 38
35 34 39 44 45 46 48 50 57 59 65 67 60 55 52 47 33 32 33 35 32 40 46 51 58 61 57 56 56 58 59 51 46 44 44 34 23 30 23 17 26 29 28
30 37 40 46 49 50 52 60 60 59 56 53 48 42 34 30 33 35 37 41 40 45 46 47 55 61 74 82 67 50 52 62 52 54 40 27 23 12 13 6 4 6 16
30 37 40 42 43 46 50 51 50 47 39 31 31 32 37 42 38 42 44 62 63 59 62 65 58 52 51 49 50 49 51 49 35 31 20 18 6 7 6 6 25 7 4
37 41 42 42 46 50 49 46 37 29 30 33 37 37 43 49 48 46 49 54 60 62 60 58 58 56 57 58 55 43 18 10 10 9 9 8 10 7 6 5 13 44 20
42 43 48 52 53 52 48 38 35 36 36 38 43 48 48 49 54 59 61 58 53 48 49 52 51 45 29 16 8 7 8 10 10 10 10 10 9 9 8 8 8 17 32
51 53 55 54 50 42 39 42 43 44 46 50 55 62 69 66 60 53 49 42 34 28 22 19 18 16 12 8 9 11 11 11 10 8 8 9 12 13 15 23 29 34 31
53 52 49 44 44 47 44 42 46 53 59 66 66 62 55 49 48 47 42 32 23 21 20 17 14 13 17 16 13 10 8 8 9 9 12 17 23 32 40 51 71 65 65
51 49 49 49 45 42 43 48 53 56 57 52 45 44 47 42 35 33 32 27 18 16 16 19 19 18 14 11 10 10 13 17 19 27 50 66 97 100 100 100 100 100 100
55 51 48 45 43 46 49 45 43 44 45 46 43 40 35 34 32 28 22 18 22 23 20 18 18 11 12 13 14 23 41 88 99 97 100 100 100 100 100 100 100 100 100
48 47 47 45 42 41 40 40 41 44 45 45 52 46 41 36 26 24 28 37 32 30 12 13 13 14 18 26 42 81 100 100 100 100 100 100 100 100 100 100 98 96 95
57 54 49 43 40 42 42 45 48 50 52 57 76 75 65 46 27 32 35 32 31 19 12 14 19 43 75 100 100 99 98 98 98 98 97 96 96 96 96 98 95 90 83
53 48 46 44 43 45 50 54 51 47 54 84 97 86 75 35 29 24 19 26 25 14 16 31 67 89 98 100 100 100 100 99 98 99 98 95 93 91 95 98 98 98 97
47 44 45 48 49 50 49 52 69 84 85 100 100 95 72 40 30 17 17 17 18 35 53 68 80 86 87 89 94 99 100 100 100 100 100 100 98 98 94 93 93 85 74
49 48 46 45 46 48 59 64 76 100 85 78 87 71 46 39 26 16 14 19 43 69 79 86 85 84 80 80 80 85 90 93 92 92 98 100 100 100 97 85 69 60 54
53 56 50 54 58 66 80 97 62 64 75 97 70 49 42 59 26 16 22 52 68 74 68 45 28 23 22 22 22 23 24 27 36 52 67 70 71 67 62 58 55 35 16
64 58 58 64 81 100 100 100 75 98 98 58 38 49 77 50 18 23 53 64 68 56 32 23 21 21 19 18 16 16 15 15 16 19 23 25 30 38 39 29 19 16 15
59 68 74 81 100 100 98 78 74 81 47 45 43 70 49 24 24 50 68 70 56 36 27 23 22 20 17 16 15 15 14 14 13 12 12 15 18 19 19 18 16 14 30
76 83 86 62 54 66 64 58 53 53 66 37 47 50 32 23 39 72 74 66 44 33 26 25 20 17 17 18 19 20 19 18 17 16 12 10 12 15 16 16 18 65 83
100 88 65 72 76 65 56 55 82 70 43 49 52 44 26 30 77 84 74 56 41 31 28 24 19 22 24 29 27 25 26 24 25 21 14 10 10 14 14 36 81 83 33
77 72 82 67 56 53 41 51 46 46 50 53 45 30 31 59 94 83 66 50 37 31 28 20 21 25 41 63 59 39 27 28 30 24 16 16 17 35 80 95 89 35 46
87 80 69 63 60 39 38 42 44 46 49 38 33 34 38 93 91 74 58 45 35 31 23 20 29 62 82 87 87 71 41 31 31 29 42 98 100 100 100 100 41 53 60
80 68 52 39 32 37 40 40 40 37 33 36 39 35 74 98 76 65 55 43 35 30 21 40 65 83 96 96 90 80 71 49 71 100 100 100 100 100 97 46 66 73 58
53 36 27 26 31 31 31 30 27 31 36 39 38 44 100 83 67 62 54 44 36 26 34 62 77 82 94 100 96 100 99 100 100 100 100 100 100 100 63 74 71 74 61
26 24 27 26 25 23 23 26 29 30 34 38 39 94 97 74 59 62 55 46 40 27 51 70 79 83 93 95 96 100 100 100 100 100 100 100 100 100 75 74 82 81 66

GFSMW_500_rhum_027.txt.gz
RH
30 30 34 34 36 41 43 48 45 49 52 55 60 62 57 53 57 62 59 61 52 43 35 34 34 35 37 37 39 43 44 45 59 53 59 45 42 36 33 36 31 28 24
31 34 35 38 41 47 51 53 53 58 65 65 65 68 65 65 65 54 49 39 31 35 37 40 41 40 39 40 42 42 43 43 46 56 64 60 50 46 45 42 44 34 29
27 29 33 39 45 52 57 63 66 67 66 69 67 68 67 58 48 36 36 38 45 49 62 55 49 51 54 49 48 48 49 47 48 54 61 61 64 64 54 43 27 28 17
26 30 35 41 48 55 61 58 54 56 64 66 57 49 43 38 39 38 44 50 56 59 59 54 49 51 54 48 46 44 38 35 29 39 55 59 59 64 60 57 34 8 6
36 36 37 42 47 49 48 54 58 60 53 44 41 41 41 43 47 54 52 57 59 55 53 49 49 46 44 38 32 26 21 20 20 20 18 13 10 8 8 7 13 52 13
33 35 40 42 48 56 58 58 56 47 42 48 48 50 54 57 54 53 57 52 51 50 44 38 35 34 34 34 31 24 19 16 15 14 13 13 13 12 11 11 11 11 48
36 40 47 55 54 56 55 51 45 49 45 43 47 51 49 49 46 46 52 52 41 37 37 41 42 36 30 26 22 24 24 22 19 16 16 17 19 19 14 14 13 14 35
48 52 56 56 54 53 50 54 50 47 45 44 45 46 43 44 52 51 47 45 50 47 57 58 57 44 38 31 18 13 10 9 9 11 13 13 12 12 13 16 24 37 47
54 54 57 56 54 49 47 44 43 41 41 44 44 44 47 48 51 54 60 63 67 76 84 76 57 38 17 10 13 13 10 10 10 11 12 13 14 19 27 31 31 47 70
54 60 59 56 54 54 52 48 47 48 47 46 45 50 59 61 52 49 54 74 89 79 66 50 33 11 8 12 12 12 13 15 19 24 29 42 87 100 100 100 100 100 100
61 63 64 64 61 52 43 44 45 49 49 46 49 52 51 50 50 57 66 70 69 64 47 23 13 9 12 14 18 26 44 56 86 100 100 100 100 100 100 100 100 95 96
70 63 57 54 48 44 48 54 52 50 49 50 53 53 52 66 73 66 71 87 63 38 20 24 12 13 20 40 62 74 80 85 92 99 100 100 100 100 100 100 100 100 100
64 63 57 52 50 52 55 54 55 52 52 56 60 74 96 97 82 85 76 54 34 24 25 15 18 32 53 59 64 74 80 83 88 92 96 99 94 90 88 91 88 87 91
66 59 55 55 56 55 49 48 50 55 58 64 80 80 78 76 69 65 54 34 19 19 16 31 62 66 65 64 52 38 36 42 60 78 86 92 99 100 100 95 76 80 89
62 60 58 55 48 47 48 51 58 58 64 74 80 72 71 67 59 49 33 24 25 20 27 62 72 74 58 38 26 22 21 21 21 22 30 59 83 96 98 99 100 100 98
58 54 46 41 40 39 45 59 56 84 100 100 78 72 67 46 34 30 29 26 22 23 59 73 76 59 38 29 23 21 20 20 18 18 18 20 23 36 67 84 88 95 100
40 32 30 34 45 58 68 92 100 92 81 79 66 60 38 34 35 39 35 27 26 50 78 77 64 47 34 25 23 22 19 16 16 15 15 15 15 16 21 29 56 67 66
36 41 46 63 83 94 100 100 92 86 71 60 58 40 38 41 44 41 28 29 43 80 79 68 51 39 31 26 23 18 17 18 18 19 18 16 14 13 13 17 21 28 36
49 64 69 77 100 100 88 84 81 68 55 56 40 38 43 43 41 29 29 36 79 82 74 53 43 34 30 23 18 19 21 27 33 28 26 24 18 14 12 11 15 18 20
59 59 62 90 89 82 79 70 53 45 56 38 40 40 38 35 30 33 35 66 88 80 59 48 38 32 22 20 28 44 55 66 66 44 31 28 22 15 12 11 13 16 17
54 66 86 77 76 70 53 36 25 33 50 42 32 32 30 32 35 36 42 97 86 68 51 43 36 24 28 47 63 71 73 76 71 45 31 29 24 17 12 12 15 20 41
70 76 75 68 55 40 28 23 22 56 34 28 28 30 34 38 40 39 86 96 75 56 47 41 30 30 57 66 66 77 85 77 54 41 33 32 25 20 26 46 80 96 91
76 68 57 43 23 15 19 23 22 25 23 23 28 32 36 40 42 68 100 84 63 55 49 41 26 49 70 62 74 94 95 99 96 51 50 94 100 100 100 100 100 82 43
57 45 24 11 11 14 17 19 19 20 24 25 28 38 47 51 83 100 90 69 61 56 48 42 26 52 67 66 84 99 98 98 100 100 100 100 100 100 100 100 83 58 66
28 12 10 12 13 16 16 19 20 19 23 27 34 48 58 86 100 94 80 67 64 56 50 44 28 46 65 74 91 93 100 100 100 100 100 100 100 100 100 88 87 79 72
9 10 11 14 15 16 18 16 18 26 34 46 39 56 84 100 99 88 61 72 68 61 56 49 30 51 71 87 93 100 93 100 100 100 100 100 100 100 100 100 99 84 66

GFSMW_500_rhum_030.txt.gz
RH
22 23 24 28 23 27 29 48 48 64 60 59 65 60 58 51 52 56 47 46 30 33 33 32 34 35 35 39 40 38 37 37 37 30 28 25 26 28 32 31 24 25 26
24 26 28 29 28 36 44 57 65 68 71 67 64 63 58 61 63 58 38 37 38 38 38 40 40 41 42 42 41 36 30 27 29 30 30 25 23 28 28 27 29 35 38
26 30 34 38 42 51 60 66 58 63 75 62 50 58 64 58 47 46 46 44 42 41 44 44 42 36 36 37 36 34 32 31 31 36 36 32 28 28 29 30 38 66 80
27 32 36 39 47 55 56 53 49 50 56 64 64 58 49 50 52 49 45 45 51 52 47 43 42 42 45 41 40 39 40 41 38 38 37 33 29 30 30 26 22 31 42
35 39 43 46 50 49 47 50 56 56 52 56 52 51 50 48 49 50 46 43 39 39 42 48 50 50 56 65 58 50 52 64 64 56 43 37 35 30 29 32 29 22 33
39 42 46 40 39 45 53 60 59 56 51 48 49 47 46 44 42 41 40 41 45 48 51 53 52 48 50 54 68 89 79 59 50 41 29 18 12 10 24 30 21 20 21
44 44 41 42 44 48 52 59 59 55 51 50 46 41 42 43 44 46 45 47 51 54 53 53 54 58 65 68 61 55 50 36 16 8 6 7 8 8 11 16 21 25 22
44 43 44 45 47 52 60 60 57 59 56 51 45 45 46 50 51 47 48 55 63 63 62 70 72 64 58 60 49 26 8 6 5 6 7 9 12 13 13 13 14 14 14
41 45 49 54 61 66 64 61 61 58 55 53 55 56 56 54 54 62 68 65 61 70 71 69 64 62 50 26 8 7 7 8 8 11 13 14 17 21 28 44 75 100 100
56 58 59 69 70 68 66 63 57 50 44 44 46 46 48 54 61 60 62 72 82 70 70 67 52 25 12 10 10 11 12 20 33 44 57 64 62 60 81 88 100 100 100
66 65 72 78 75 68 52 39 39 39 37 34 34 38 44 55 57 65 74 71 70 70 60 36 19 13 11 12 14 19 39 54 62 67 71 77 84 88 96 100 100 100 94
82 84 78 67 47 40 42 39 31 27 27 28 36 45 45 57 80 89 94 78 63 55 28 21 18 18 17 17 28 48 50 58 53 42 33 31 48 71 82 93 100 100 100
90 69 57 46 50 50 36 30 30 26 30 41 48 55 71 100 98 87 74 58 49 28 26 24 26 22 24 44 69 70 68 50 35 28 24 22 21 21 34 81 98 98 98
81 66 58 59 47 37 33 31 28 36 43 52 84 99 96 92 82 66 49 48 28 26 27 32 25 26 50 81 78 68 53 42 32 25 22 21 20 20 20 22 48 86 96
61 65 61 43 33 34 34 37 40 44 62 89 99 93 71 70 52 33 34 28 25 25 30 25 26 49 87 79 69 51 41 33 26 25 23 20 19 18 18 19 20 26 66
62 54 42 36 38 38 38 42 48 57 86 73 69 60 44 27 23 28 30 24 25 27 25 30 46 91 85 69 49 42 33 29 24 19 17 18 18 17 16 16 16 18 20
47 43 40 36 38 37 37 45 51 54 60 59 45 29 15 25 44 32 26 25 26 27 32 39 90 90 70 50 41 33 28 21 21 23 23 22 26 26 20 16 14 15 16
43 40 39 39 37 42 53 52 41 41 39 24 12 11 10 19 22 24 24 28 31 36 37 90 89 74 52 43 34 26 23 37 51 65 68 66 64 42 26 21 17 13 14
40 39 38 41 50 51 41 44 45 28 11 10 12 18 20 15 21 24 28 35 38 40 67 86 81 56 50 39 28 30 49 50 58 69 84 86 75 43 25 23 18 14 13
47 48 49 42 40 40 45 34 15 11 13 16 28 28 32 63 40 38 40 47 51 66 88 84 65 54 42 35 26 50 43 54 83 95 87 77 48 30 28 25 18 15 12
43 42 44 44 42 43 22 9 9 10 12 14 63 46 25 59 99 50 49 61 94 98 88 72 60 50 44 29 34 60 58 68 94 99 97 64 38 34 32 23 17 14 12
45 47 44 42 36 15 8 8 8 11 11 16 18 81 67 98 88 38 60 98 100 92 79 67 57 50 42 29 45 60 72 91 94 96 89 77 70 72 72 71 55 42 44
50 46 42 28 10 9 8 9 10 14 16 14 22 43 55 75 62 59 90 100 96 77 75 64 54 48 37 33 56 80 97 95 100 100 100 100 100 100 100 100 100 100 100
48 40 22 9 9 8 8 12 15 15 14 17 25 31 50 55 65 93 100 94 72 78 72 60 48 48 36 43 68 99 100 100 98 100 100 100 100 100 100 100 100 100 87
39 16 9 9 8 8 11 16 15 15 20 21 24 30 40 51 86 97 95 72 66 82 67 53 49 42 37 50 80 94 99 100 100 100 100 100 100 100 100 100 100 100 94
15 9 10 8 9 11 15 16 16 23 27 30 35 42 61 86 88 95 83 56 85 75 56 53 54 50 41 45 86 98 99 98 100 100 100 100 100 100 100 100 100 100 80

GFSMW_500_rhum_033.txt.gz
RH
25 24 23 28 41 64 78 58 41 34 39 39 42 59 52 53 53 53 50 42 40 41 43 43 40 39 36 33 31 29 28 28 30 29 28 27 26 26 26 24 23 21 20
29 30 40 47 58 74 55 42 56 63 49 49 55 55 61 64 64 60 48 49 47 42 39 34 32 31 32 33 34 35 33 32 33 32 30 26 28 31 31 30 29 27 24
35 38 42 43 43 44 49 58 68 60 47 50 58 64 63 63 59 58 52 45 41 38 36 37 37 37 36 36 34 34 38 41 43 45 42 36 34 31 37 42 44 43 36
48 39 46 56 60 62 59 56 46 47 57 63 63 60 58 57 56 53 50 46 45 44 45 46 46 44 43 42 45 46 45 46 47 50 54 55 56 43 32 43 47 49 48
60 41 44 48 52 54 49 45 48 48 52 62 64 60 58 61 64 55 46 45 50 53 52 53 54 54 55 57 56 56 55 55 52 51 55 56 62 62 51 41 38 38 36
39 40 45 48 51 51 53 55 53 54 57 58 58 62 62 54 46 45 44 47 50 54 58 60 58 58 59 60 60 71 69 64 60 56 51 40 30 20 9 6 5 5 4
58 48 47 42 42 47 50 59 67 71 70 70 73 58 43 36 26 23 27 38 52 51 50 52 55 66 74 82 74 64 57 48 29 11 5 5 5 5 5 5 5 5 6
64 62 65 55 52 58 61 66 72 76 84 66 50 50 40 28 25 26 30 35 41 39 47 63 61 82 74 66 60 46 24 9 7 7 6 6 8 9 11 11 13 12 10
73 74 70 69 70 70 76 80 83 70 56 49 28 28 30 28 27 36 47 51 61 72 84 87 90 76 60 45 26 11 10 10 11 11 12 14 21 30 38 35 44 56 37
67 63 72 74 82 86 84 66 50 43 27 28 31 31 24 26 46 60 62 86 100 100 100 88 65 43 28 15 13 12 15 18 19 24 48 63 60 59 59 59 60 69 64
76 84 88 98 94 68 49 45 32 26 26 25 24 26 30 33 47 52 72 84 73 68 62 47 30 20 16 16 18 21 22 23 39 63 64 62 60 47 35 29 26 30 54
100 94 82 62 51 49 45 33 31 26 27 30 34 36 35 35 45 83 70 57 43 34 24 18 22 19 20 26 26 26 28 64 83 77 70 59 51 43 35 29 24 22 22
99 78 56 50 52 48 38 36 33 35 34 38 40 34 34 37 41 43 34 18 14 16 18 20 22 26 31 31 34 43 86 89 81 69 54 44 39 33 28 25 22 21 20
66 63 60 53 46 42 41 39 38 37 34 36 46 47 36 31 18 8 9 10 11 15 20 23 26 31 32 36 43 88 88 79 61 49 42 34 30 27 24 22 21 21 21
60 58 53 48 46 48 49 49 39 39 40 44 38 36 22 10 9 8 7 8 13 19 25 30 33 35 40 38 82 89 77 55 45 36 32 24 23 23 20 17 17 17 17
57 54 51 51 50 45 35 31 38 46 43 33 24 11 9 9 7 8 10 21 20 34 50 39 43 47 43 80 87 77 55 46 37 28 27 36 40 47 53 42 26 18 17
54 53 48 41 34 30 31 40 39 38 33 22 11 9 8 8 11 40 97 100 98 68 58 48 57 62 89 88 77 56 46 38 28 30 33 43 58 57 46 63 54 45 28
55 47 37 29 30 32 35 38 39 36 23 15 9 8 10 12 18 100 95 100 61 87 95 68 76 90 91 77 57 48 42 29 28 48 45 53 87 87 59 60 68 59 30
33 26 27 32 37 40 43 42 38 19 10 9 8 9 11 15 44 100 100 100 92 92 75 100 94 92 77 64 54 45 34 27 47 61 73 90 92 94 80 48 46 34 28
28 32 33 37 47 52 48 42 21 10 10 8 6 8 13 14 73 100 100 100 100 86 100 98 94 78 68 58 47 42 29 42 67 93 100 96 94 87 59 39 34 30 27
33 37 42 50 51 50 47 26 11 11 8 7 9 13 14 20 65 95 100 100 93 100 98 84 80 74 61 49 51 36 40 67 87 100 95 100 100 100 89 53 36 29 21
45 45 40 41 49 50 30 15 11 9 7 10 13 14 18 20 27 53 60 58 92 91 74 77 78 60 47 52 48 36 65 81 91 88 91 98 100 100 100 100 100 75 34
50 48 50 56 53 29 14 12 9 8 10 14 15 22 23 22 24 32 51 90 93 68 66 81 56 47 48 50 42 40 87 90 92 92 100 100 100 100 100 100 100 100 100
56 58 62 57 30 16 13 10 7 11 13 16 32 41 43 52 65 80 81 85 70 61 82 56 44 43 45 43 40 45 98 100 88 94 100 100 100 100 100 100 100 100 100
68 67 56 35 21 14 10 8 10 13 15 26 55 62 64 68 74 72 83 75 66 85 65 49 41 42 44 41 40 40 81 98 92 100 100 100 100 100 100 100 100 100 100
69 55 35 23 16 11 9 10 12 13 19 47 63 66 72 73 70 72 80 75 80 86 58 51 41 44 43 40 42 40 87 94 89 96 100 100 100 100 100 100 100 100 100

GFSMW_500_rhum_036.txt.gz
RH
18 14 12 15 52 65 79 84 98 87 67 42 37 46 49 55 69 62 58 53 50 49 54 59 55 50 44 41 39 36 32 27 22 16 15 18 23 25 24 27 26 24 22
38 33 27 57 68 69 85 84 40 38 37 44 50 51 58 64 65 63 60 59 62 70 64 49 42 36 28 20 15 13 17 20 20 19 15 10 18 25 29 33 35 31 31
76 76 70 54 54 47 42 40 44 47 50 57 56 60 67 74 74 69 68 81 81 55 46 33 23 20 17 16 17 22 25 26 26 28 29 25 23 18 26 42 45 48 46
99 93 88 91 76 59 58 65 72 75 69 59 60 62 72 78 79 89 93 62 42 32 29 30 28 22 23 29 29 27 25 27 31 39 38 48 50 42 25 34 39 44 47
96 100 100 86 60 61 70 66 61 58 57 59 69 76 80 79 94 77 53 39 34 36 38 35 37 42 45 40 36 37 40 48 59 64 52 61 60 59 54 43 37 33 34
88 67 60 76 80 83 72 76 59 58 67 74 83 89 86 56 38 27 30 34 38 40 37 37 41 43 47 47 55 58 66 68 74 83 76 61 51 39 30 20 13 9 6
63 71 95 100 94 86 83 73 68 69 69 82 88 60 38 27 31 33 36 35 30 29 32 36 38 44 43 43 51 74 98 100 100 82 38 23 17 10 7 6 5 5 5
95 99 97 70 69 76 88 88 83 88 92 68 56 51 36 35 33 28 22 20 27 29 34 32 30 31 36 44 42 41 40 34 26 16 15 13 13 14 14 14 14 11 10
84 60 56 59 89 84 87 84 71 52 49 40 34 34 31 24 18 20 26 36 36 33 29 28 22 15 12 11 13 17 17 16 18 19 20 24 26 23 22 22 36 45 30
61 60 77 93 76 66 55 51 45 37 36 37 34 29 20 17 21 31 40 41 37 32 23 12 9 9 10 12 14 16 19 23 26 29 32 29 27 32 56 74 74 70 62
81 83 100 90 62 52 47 40 38 38 39 34 26 22 20 26 34 42 43 38 27 12 9 9 8 9 13 18 19 22 25 27 28 30 31 33 65 81 79 74 67 57 52
98 100 84 62 58 55 52 45 42 37 29 26 26 29 37 40 43 43 34 15 9 9 8 7 8 22 39 28 23 29 32 34 37 40 65 92 87 78 65 56 48 44 42
87 70 63 62 56 51 45 37 31 35 40 43 41 37 40 46 41 26 13 10 9 9 7 11 33 45 90 72 33 37 47 48 51 93 95 86 70 54 46 39 32 30 29
66 66 63 58 54 52 52 53 54 44 33 28 28 36 47 43 28 21 19 13 8 8 19 49 52 83 100 51 34 53 57 84 87 90 78 59 48 40 34 27 23 22 22
62 62 62 60 58 55 44 37 33 26 24 36 49 43 40 34 28 20 11 7 9 15 93 96 98 100 59 35 52 72 88 90 84 63 50 43 37 28 27 28 31 41 40
69 68 64 57 43 30 29 26 24 31 31 26 28 40 36 30 21 11 7 11 15 52 100 100 100 93 46 52 83 88 86 71 56 48 38 34 26 30 49 42 47 62 71
75 60 45 31 30 31 27 31 29 26 30 43 48 36 20 15 9 8 11 14 25 97 100 97 95 86 60 93 83 77 68 52 42 36 30 25 37 48 54 66 79 97 98
54 39 30 32 32 33 33 34 35 40 51 50 34 19 14 9 9 11 12 20 100 100 100 100 96 77 92 83 72 68 48 41 38 31 33 57 70 82 85 89 97 100 100
41 35 34 33 34 39 44 46 45 52 51 30 23 16 10 8 9 10 14 21 52 100 100 97 73 90 78 76 68 45 40 41 34 47 81 80 77 90 100 96 87 84 74
40 38 39 43 48 55 55 50 52 54 37 24 19 12 8 10 10 16 18 18 34 67 74 64 91 70 78 63 42 39 36 33 38 84 91 78 91 100 100 100 100 63 44
49 49 52 58 57 55 54 57 56 46 31 18 13 9 11 11 21 26 27 33 46 62 80 77 68 77 57 42 39 38 35 32 60 80 76 92 100 100 100 100 100 100 63
64 63 65 60 59 61 62 59 50 38 20 14 10 11 12 25 45 50 52 57 61 68 70 67 79 60 46 39 39 40 37 32 67 76 79 99 100 100 100 100 100 100 100
70 65 62 62 65 67 64 52 39 22 15 11 11 11 14 46 59 61 61 60 64 69 70 81 72 55 42 40 41 40 36 34 73 78 81 97 100 100 100 100 100 100 100
70 64 63 62 70 68 56 41 20 14 12 12 13 13 30 62 66 63 65 64 71 75 75 80 64 52 41 39 42 40 39 39 81 81 81 93 100 100 100 100 100 100 100
68 65 68 78 73 59 41 21 15 12 12 14 14 18 58 70 68 69 71 72 80 81 83 81 63 51 40 38 43 41 34 34 74 91 89 94 100 100 100 100 100 100 100
70 78 87 77 60 37 21 16 13 13 15 17 19 34 73 76 66 70 75 73 86 89 88 78 61 47 40 39 46 44 36 35 70 88 86 89 99 100 100 100 100 100 100